TimeEDT,TemperatureF,Dew PointF,Humidity,Sea Level PressureIn,VisibilityMPH,Wind Direction,Wind SpeedMPH,Gust SpeedMPH,PrecipitationIn,Events,Conditions,WindDirDegrees,DateUTC
12:53 AM,71.1,66.9,87,29.83,10.0,Calm,Calm,-,0.00,,Overcast,0,2013-09-01 04:53:00
1:53 AM,70.0,66.9,90,29.82,10.0,ENE,4.6,-,0.00,Rain,Light Rain,60,2013-09-01 05:53:00
2:53 AM,70.0,66.0,87,29.80,10.0,Calm,Calm,-,0.00,,Overcast,0,2013-09-01 06:53:00
3:53 AM,69.1,66.0,90,29.78,10.0,Calm,Calm,-,N/A,,Partly Cloudy,0,2013-09-01 07:53:00
4:46 AM,69.8,66.2,88,29.80,10.0,Calm,Calm,-,N/A,,Overcast,0,2013-09-01 08:46:00
4:53 AM,69.1,66.0,90,29.79,10.0,East,4.6,-,N/A,,Overcast,100,2013-09-01 08:53:00
5:53 AM,70.0,66.9,90,29.79,9.0,Calm,Calm,-,N/A,,Overcast,0,2013-09-01 09:53:00
6:53 AM,70.0,66.9,90,29.79,9.0,Calm,Calm,-,N/A,,Overcast,0,2013-09-01 10:53:00
7:53 AM,70.0,66.9,90,29.78,3.0,Calm,Calm,-,N/A,,Overcast,0,2013-09-01 11:53:00
8:53 AM,71.1,68.0,90,29.79,2.0,Calm,Calm,-,N/A,,Overcast,0,2013-09-01 12:53:00
9:18 AM,71.6,69.8,94,29.79,1.0,Calm,Calm,-,N/A,,Overcast,0,2013-09-01 13:18:00
9:53 AM,72.0,69.1,91,29.79,1.2,Calm,Calm,-,N/A,,Overcast,0,2013-09-01 13:53:00
10:46 AM,73.4,69.8,88,29.80,3.0,South,5.8,-,N/A,,Overcast,190,2013-09-01 14:46:00
10:53 AM,73.9,69.1,85,29.78,2.5,SE,4.6,-,N/A,,Haze,140,2013-09-01 14:53:00
11:00 AM,73.4,69.8,88,29.80,2.5,South,6.9,-,N/A,,Haze,190,2013-09-01 15:00:00
11:53 AM,75.9,69.1,79,29.80,3.0,SSW,3.5,-,N/A,,Haze,210,2013-09-01 15:53:00
12:22 PM,78.8,69.8,74,29.80,4.0,South,5.8,-,N/A,,Haze,170,2013-09-01 16:22:00
12:37 PM,78.8,69.8,74,29.80,4.0,SSW,4.6,-,N/A,,Haze,200,2013-09-01 16:37:00
12:53 PM,79.0,69.1,72,29.78,4.0,SW,6.9,-,N/A,,Haze,220,2013-09-01 16:53:00
1:06 PM,78.8,68.0,69,29.79,10.0,SW,5.8,-,N/A,,Overcast,220,2013-09-01 17:06:00
1:53 PM,81.0,69.1,67,29.76,9.0,Variable,4.6,-,N/A,,Overcast,0,2013-09-01 17:53:00
2:53 PM,82.9,69.1,63,29.75,10.0,SSW,5.8,-,N/A,,Mostly Cloudy,200,2013-09-01 18:53:00
3:53 PM,82.9,68.0,60,29.75,10.0,WNW,4.6,-,N/A,,Mostly Cloudy,300,2013-09-01 19:53:00
4:53 PM,82.9,68.0,60,29.74,10.0,West,5.8,-,N/A,,Scattered Clouds,260,2013-09-01 20:53:00
5:53 PM,82.9,70.0,65,29.73,10.0,West,8.1,-,N/A,,Mostly Cloudy,270,2013-09-01 21:53:00
6:53 PM,80.1,69.1,69,29.73,10.0,West,8.1,-,N/A,,Partly Cloudy,280,2013-09-01 22:53:00
7:53 PM,77.0,68.0,74,29.75,10.0,West,6.9,-,N/A,,Clear,280,2013-09-01 23:53:00
8:53 PM,73.0,66.0,79,29.75,10.0,SW,5.8,-,N/A,,Clear,220,2013-09-02 00:53:00
9:53 PM,72.0,64.9,78,29.77,10.0,West,3.5,-,N/A,,Clear,270,2013-09-02 01:53:00
10:53 PM,70.0,64.9,84,29.78,10.0,Variable,3.5,-,N/A,,Mostly Cloudy,0,2013-09-02 02:53:00
11:53 PM,71.1,64.9,81,29.75,10.0,Calm,Calm,-,N/A,,Clear,0,2013-09-02 03:53:00